Gunnison, CO

2:13 AM MST on January 18, 2017 (GMT -0700)
Gunnison County

Weather History for KGUC - May, 2013

Change the Weather History Date:

Friday, May 31, 2013

  Actual Average Record
Temperature  
Mean Temperature 51 °F -  
Max Temperature 60 °F 68 °F 84 °F (2002)
Min Temperature 42 °F 35 °F 24 °F (2011)
Degree Days  
Heating Degree Days 14    
Growing Degree Days 1 (Base 50)    
Moisture  
Dew Point 14 °F    
Average Humidity 23    
Maximum Humidity 40    
Minimum Humidity 13    
Precipitation  
Precipitation 0.00 in - - ()
Sea Level Pressure  
Sea Level Pressure 30.15 in    
Wind  
Wind Speed 11 mph (West)    
Max Wind Speed 25 mph    
Max Gust Speed 40 mph    
Visibility 10 miles    
Events      
Averages and records for this station are not official NWS values.
T = Trace of Precipitation, MM = Missing Value Source: NWS Daily Summary

Daily Weather History Graph

Daily Weather History Graph

Search for Another Location

Airport or City:

Trip Planner

Search our weather history database for the weather conditions in past years. The results will help you decide how hot, cold, wet, or windy it might be!

Date:

Astronomy

May. 31, 2013 Rise Set
Actual Time 5:45 AM MDT 8:25 PM MDT
Civil Twilight 5:14 AM MDT 8:56 PM MDT
Nautical Twilight 4:35 AM MDT 9:35 PM MDT
Astronomical Twilight 3:52 AM MDT 10:19 PM MDT
Moon 1:05 AM MDT (5/31) 12:59 PM MDT (5/31)
Length of Visible Light 15h 42m
Length of Day
14h 40m
Waning Gibbous, 51% of the Moon is Illuminated
May 31
Waning Gibbous
May 31
Last Quarter
Jun 8
New
Jun 16
First Quarter
Jun 23
Full

Hourly Weather History & Observations

Time (MDT) Temp. Windchill Dew Point Humidity Pressure Visibility Wind Dir Wind Speed Gust Speed Precip Events Conditions
12:15 AM 53.6 °F - 17.6 °F 24% 30.09 in 10.0 mi WNW 11.5 mph - N/A   Scattered Clouds
12:35 AM 53.6 °F - 17.6 °F 24% 30.09 in 10.0 mi WNW 11.5 mph - N/A   Scattered Clouds
12:55 AM 53.6 °F - 17.6 °F 24% 30.10 in 10.0 mi West 5.8 mph - N/A   Mostly Cloudy
1:15 AM 51.8 °F - 19.4 °F 28% 30.10 in 10.0 mi West 5.8 mph - N/A   Mostly Cloudy
1:35 AM 50.0 °F - 21.2 °F 32% 30.10 in 10.0 mi WSW 3.5 mph - N/A   Scattered Clouds
1:55 AM 50.0 °F - 21.2 °F 32% 30.09 in 10.0 mi Calm Calm - N/A   Scattered Clouds
2:15 AM 48.2 °F - 21.2 °F 34% 30.08 in 10.0 mi Calm Calm - N/A   Partly Cloudy
2:35 AM 48.2 °F - 21.2 °F 34% 30.09 in 10.0 mi Calm Calm - N/A   Clear
2:55 AM 48.2 °F - 21.2 °F 34% 30.09 in 10.0 mi West 3.5 mph - N/A   Partly Cloudy
3:15 AM 46.4 °F 45.2 °F 19.4 °F 34% 30.09 in 10.0 mi West 3.5 mph - N/A   Mostly Cloudy
3:35 AM 46.4 °F 44.3 °F 21.2 °F 37% 30.09 in 10.0 mi WSW 4.6 mph - N/A   Mostly Cloudy
3:55 AM 46.4 °F 43.5 °F 21.2 °F 37% 30.09 in 10.0 mi SSW 5.8 mph - N/A   Mostly Cloudy
4:15 AM 48.2 °F - 21.2 °F 34% 30.09 in 10.0 mi West 4.6 mph - N/A   Mostly Cloudy
4:35 AM 48.2 °F - 21.2 °F 34% 30.09 in 10.0 mi West 3.5 mph - N/A   Mostly Cloudy
4:55 AM 46.4 °F 42.4 °F 23.0 °F 40% 30.09 in 10.0 mi WSW 8.1 mph - N/A   Mostly Cloudy
5:15 AM 46.4 °F 45.2 °F 23.0 °F 40% 30.10 in 10.0 mi NW 3.5 mph - N/A   Mostly Cloudy
5:35 AM 48.2 °F - 21.2 °F 34% 30.11 in 10.0 mi NNE 4.6 mph - N/A   Overcast
5:55 AM 48.2 °F - 19.4 °F 32% 30.12 in 10.0 mi NNW 17.3 mph 21.9 mph N/A   Overcast
6:15 AM 46.4 °F 40.1 °F 21.2 °F 37% 30.14 in 10.0 mi WNW 15.0 mph 19.6 mph N/A   Mostly Cloudy
6:35 AM 46.4 °F 43.5 °F 21.2 °F 37% 30.15 in 10.0 mi West 5.8 mph - N/A   Scattered Clouds
6:55 AM 46.4 °F 42.9 °F 21.2 °F 37% 30.16 in 10.0 mi West 6.9 mph - N/A   Clear
7:15 AM 46.4 °F 39.5 °F 21.2 °F 37% 30.15 in 10.0 mi WSW 17.3 mph 26.5 mph N/A   Partly Cloudy
7:35 AM 46.4 °F 40.7 °F 23.0 °F 40% 30.15 in 10.0 mi WSW 12.7 mph 19.6 mph N/A   Partly Cloudy
7:55 AM 48.2 °F - 21.2 °F 34% 30.16 in 10.0 mi WSW 13.8 mph 20.7 mph N/A   Partly Cloudy
8:15 AM 48.2 °F - 23.0 °F 37% 30.16 in 10.0 mi SW 11.5 mph 19.6 mph N/A   Clear
8:35 AM 50.0 °F - 21.2 °F 32% 30.15 in 10.0 mi SSW 17.3 mph 21.9 mph N/A   Clear
8:55 AM 50.0 °F - 21.2 °F 32% 30.15 in 10.0 mi SSW 15.0 mph 23.0 mph N/A   Clear
9:15 AM 51.8 °F - 24.8 °F 35% 30.15 in 10.0 mi SW 13.8 mph 19.6 mph N/A   Clear
9:35 AM 51.8 °F - 23.0 °F 33% 30.15 in 10.0 mi WSW 13.8 mph 24.2 mph N/A   Clear
9:55 AM 53.6 °F - 23.0 °F 30% 30.14 in 10.0 mi WSW 18.4 mph 27.6 mph N/A   Clear
10:15 AM 55.4 °F - 21.2 °F 26% 30.14 in 10.0 mi WSW 16.1 mph 24.2 mph N/A   Partly Cloudy
10:35 AM 55.4 °F - 17.6 °F 23% 30.14 in 10.0 mi West 19.6 mph 27.6 mph N/A   Scattered Clouds
10:55 AM 55.4 °F - 15.8 °F 21% 30.15 in 10.0 mi WSW 20.7 mph 40.3 mph N/A   Partly Cloudy
11:15 AM 55.4 °F - 12.2 °F 18% 30.14 in 10.0 mi WSW 19.6 mph 31.1 mph N/A   Clear
11:35 AM 55.4 °F - 12.2 °F 18% 30.15 in 10.0 mi WSW 25.3 mph 34.5 mph N/A   Clear
11:55 AM 57.2 °F - 12.2 °F 17% 30.15 in 10.0 mi West 19.6 mph 35.7 mph N/A   Clear
12:15 PM 57.2 °F - 12.2 °F 17% 30.15 in 10.0 mi WSW 25.3 mph 32.2 mph N/A   Clear
12:35 PM 57.2 °F - 10.4 °F 16% 30.15 in 10.0 mi WSW 18.4 mph 31.1 mph N/A   Clear
12:55 PM 57.2 °F - 10.4 °F 16% 30.15 in 10.0 mi West 21.9 mph 33.4 mph N/A   Clear
1:15 PM 59.0 °F - 8.6 °F 14% 30.15 in 10.0 mi WSW 20.7 mph 32.2 mph N/A   Clear
1:35 PM 57.2 °F - 8.6 °F 14% 30.14 in 10.0 mi SW 19.6 mph 29.9 mph N/A   Clear
1:55 PM 59.0 °F - 8.6 °F 14% 30.14 in 10.0 mi West 19.6 mph 32.2 mph N/A   Clear
2:15 PM 60.8 °F - 8.6 °F 13% 30.14 in 10.0 mi WSW 25.3 mph 39.1 mph N/A   Clear
2:35 PM 60.8 °F - 8.6 °F 13% 30.15 in 10.0 mi WNW 18.4 mph 35.7 mph N/A   Clear
2:55 PM 60.8 °F - 8.6 °F 13% 30.15 in 10.0 mi West 15.0 mph 27.6 mph N/A   Clear
3:15 PM 60.8 °F - 8.6 °F 13% 30.15 in 10.0 mi West 18.4 mph 33.4 mph N/A   Clear
3:35 PM 60.8 °F - 8.6 °F 13% 30.15 in 10.0 mi West 20.7 mph 28.8 mph N/A   Clear
3:55 PM 60.8 °F - 8.6 °F 13% 30.15 in 10.0 mi WSW 18.4 mph 33.4 mph N/A   Clear
4:15 PM 60.8 °F - 8.6 °F 13% 30.14 in 10.0 mi West 24.2 mph 35.7 mph N/A   Partly Cloudy
4:35 PM 60.8 °F - 10.4 °F 14% 30.14 in 10.0 mi WSW 19.6 mph 27.6 mph N/A   Clear
4:55 PM 60.8 °F - 8.6 °F 13% 30.15 in 10.0 mi NW 12.7 mph 25.3 mph N/A   Clear
5:15 PM 60.8 °F - 10.4 °F 14% 30.16 in 10.0 mi West 16.1 mph 23.0 mph N/A   Clear
5:35 PM 60.8 °F - 8.6 °F 13% 30.16 in 10.0 mi West 19.6 mph 24.2 mph N/A   Scattered Clouds
5:55 PM 60.8 °F - 10.4 °F 14% 30.16 in 10.0 mi WNW 18.4 mph 26.5 mph N/A   Partly Cloudy
6:15 PM 60.8 °F - 8.6 °F 13% 30.16 in 10.0 mi West 21.9 mph 25.3 mph N/A   Partly Cloudy
6:35 PM 60.8 °F - 8.6 °F 13% 30.16 in 10.0 mi West 18.4 mph 29.9 mph N/A   Mostly Cloudy
6:55 PM 59.0 °F - 8.6 °F 14% 30.16 in 10.0 mi WSW 19.6 mph 24.2 mph N/A   Scattered Clouds
7:15 PM 59.0 °F - 6.8 °F 13% 30.17 in 10.0 mi West 11.5 mph - N/A   Clear
7:35 PM 57.2 °F - 6.8 °F 13% 30.17 in 10.0 mi West 12.7 mph 20.7 mph N/A   Clear
7:55 PM 57.2 °F - 6.8 °F 13% 30.17 in 10.0 mi West 13.8 mph - N/A   Clear
8:15 PM 55.4 °F - 5.0 °F 13% 30.17 in 10.0 mi West 9.2 mph - N/A   Clear
8:35 PM 55.4 °F - 5.0 °F 13% 30.18 in 10.0 mi West 6.9 mph - N/A   Clear
8:55 PM 53.6 °F - 5.0 °F 14% 30.19 in 10.0 mi West 8.1 mph - N/A   Clear
9:15 PM 51.8 °F - 5.0 °F 15% 30.20 in 10.0 mi NNW 8.1 mph - N/A   Clear
9:35 PM 48.2 °F - 3.2 °F 16% 30.21 in 10.0 mi NNW 9.2 mph - N/A   Clear
9:55 PM 46.4 °F 41.1 °F 6.8 °F 20% 30.22 in 10.0 mi NNW 11.5 mph - N/A   Clear
10:15 PM 44.6 °F 40.7 °F 5.0 °F 20% 30.23 in 10.0 mi NNW 6.9 mph - N/A   Clear
10:35 PM 44.6 °F 39.2 °F 6.8 °F 21% 30.23 in 10.0 mi NW 10.4 mph - N/A   Clear
10:55 PM 44.6 °F 39.7 °F 6.8 °F 21% 30.24 in 10.0 mi North 9.2 mph - N/A   Clear
11:15 PM 42.8 °F 41.1 °F 6.8 °F 23% 30.24 in 10.0 mi NNW 3.5 mph - N/A   Clear
11:35 PM 42.8 °F 41.1 °F 8.6 °F 25% 30.25 in 10.0 mi WNW 3.5 mph - N/A   Clear
11:55 PM 42.8 °F 41.1 °F 8.6 °F 25% 30.25 in 10.0 mi NW 3.5 mph - N/A   Clear